Location: Unspecified
(41.1850°N, 73.2650°W)
Time: 14:41:12
(UTC+00:00)

Hubble Space Telescope - Pass Details

Date: 23 February 2026
Orbit: 476 x 478 km, 28.5° (Epoch: 14 March)

Event Time Altitude Azimuth Distance (km) Brightness Sun altitude
Exits shadow 09:46:21 12° 177° (S) 1,523 3.0 -21.4°
Drops below altitude 10° 09:47:38 10° 157° (SSE) 1,637 3.4 -21.2°
Sets 09:51:02 0° 125° (SE) 2,516 5.0 -20.6°
